EIN1B EGPH-EIDW

Flight info

Callsign EIN1B
Flight time 0h 44m
Altitude 22000
Route GOSAM P600 TRN/N0397F240 DCT BLACA P620 NIMAT NIMAT4L
Aircraft A321/M-SDE3FGHIRWY/LB1

Departure

Time 2026-05-07 20:11
Airport Edinburgh Airport (EGPH)

Arrival

Time 2026-05-07 20:55
Airport Dublin Airport (EIDW)
Time Latitude Longitude Altitude Speed Heading
2026-05-07 19:29 55.94657 -3.36621 116 ft 0 kts 89°
2026-05-07 20:02 55.94657 -3.36660 113 ft 4 kts 89°
2026-05-07 20:02 55.94656 -3.36701 114 ft 4 kts 78°
2026-05-07 20:02 55.94646 -3.36732 113 ft 4 kts 12°
2026-05-07 20:02 55.94620 -3.36734 114 ft 3 kts 358°
2026-05-07 20:03 55.94617 -3.36734 114 ft 0 kts 359°
2026-05-07 20:05 55.94618 -3.36734 114 ft 2 kts 359°
2026-05-07 20:05 55.94645 -3.36734 113 ft 5 kts 359°
2026-05-07 20:06 55.94695 -3.36736 116 ft 8 kts 359°
2026-05-07 20:06 55.94751 -3.36749 116 ft 8 kts 338°
2026-05-07 20:06 55.94800 -3.36774 116 ft 7 kts 355°
2026-05-07 20:06 55.94849 -3.36779 116 ft 7 kts 356°
2026-05-07 20:07 55.94921 -3.36823 114 ft 12 kts 351°
2026-05-07 20:07 55.94981 -3.36737 115 ft 11 kts 57°
2026-05-07 20:07 55.95019 -3.36625 113 ft 10 kts 58°
2026-05-07 20:07 55.95055 -3.36519 114 ft 12 kts 59°
2026-05-07 20:08 55.95111 -3.36352 115 ft 17 kts 59°
2026-05-07 20:08 55.95169 -3.36179 115 ft 16 kts 58°
2026-05-07 20:08 55.95224 -3.36016 113 ft 15 kts 59°
2026-05-07 20:08 55.95287 -3.35828 113 ft 20 kts 59°
2026-05-07 20:09 55.95350 -3.35641 114 ft 15 kts 59°
2026-05-07 20:09 55.95401 -3.35490 114 ft 14 kts 59°
2026-05-07 20:09 55.95470 -3.35418 116 ft 12 kts 345°
2026-05-07 20:10 55.95552 -3.35613 113 ft 0 kts 245°
2026-05-07 20:10 55.95506 -3.35765 113 ft 45 kts 240°
2026-05-07 20:10 55.95212 -3.36627 113 ft 113 kts 239°
2026-05-07 20:10 55.94732 -3.38057 323 ft 141 kts 237°
2026-05-07 20:11 55.94234 -3.39531 963 ft 139 kts 234°
2026-05-07 20:11 55.93728 -3.40989 1669 ft 137 kts 233°
2026-05-07 20:11 55.93203 -3.42487 2144 ft 151 kts 233°
2026-05-07 20:11 55.92608 -3.44180 2416 ft 171 kts 234°
2026-05-07 20:12 55.91938 -3.46095 2590 ft 194 kts 235°
2026-05-07 20:12 55.91180 -3.48273 2904 ft 217 kts 236°
2026-05-07 20:12 55.90467 -3.50717 3440 ft 233 kts 250°
2026-05-07 20:12 55.90151 -3.53658 4158 ft 245 kts 257°
2026-05-07 20:13 55.89861 -3.56680 5125 ft 249 kts 258°
2026-05-07 20:13 55.89559 -3.59760 5791 ft 255 kts 257°
2026-05-07 20:13 55.89254 -3.62850 6241 ft 251 kts 258°
2026-05-07 20:13 55.88949 -3.65934 6949 ft 254 kts 257°
2026-05-07 20:14 55.88636 -3.69056 7666 ft 257 kts 257°
2026-05-07 20:14 55.88321 -3.72167 8390 ft 259 kts 257°
2026-05-07 20:14 55.88000 -3.75333 9143 ft 261 kts 257°
2026-05-07 20:14 55.87676 -3.78533 9900 ft 264 kts 257°
2026-05-07 20:15 55.87349 -3.81794 10596 ft 271 kts 257°
2026-05-07 20:15 55.87017 -3.85132 11304 ft 278 kts 257°
2026-05-07 20:15 55.86675 -3.88563 12026 ft 284 kts 257°
2026-05-07 20:15 55.86325 -3.92067 12774 ft 291 kts 257°
2026-05-07 20:16 55.85967 -3.95644 13560 ft 296 kts 257°
2026-05-07 20:16 55.85600 -3.99289 14258 ft 302 kts 257°
2026-05-07 20:16 55.85227 -4.02994 14962 ft 306 kts 256°
2026-05-07 20:16 55.84847 -4.06747 15674 ft 310 kts 256°
2026-05-07 20:17 55.84339 -4.10479 16398 ft 310 kts 246°
2026-05-07 20:17 55.83305 -4.13830 17148 ft 310 kts 231°
2026-05-07 20:17 55.81777 -4.16517 17913 ft 311 kts 216°
2026-05-07 20:17 55.79992 -4.18693 18627 ft 312 kts 215°
2026-05-07 20:18 55.78193 -4.20877 19311 ft 313 kts 215°
2026-05-07 20:18 55.76398 -4.23085 20006 ft 314 kts 215°
2026-05-07 20:18 55.74605 -4.25313 20723 ft 315 kts 216°
2026-05-07 20:18 55.72812 -4.27550 21454 ft 314 kts 216°
2026-05-07 20:19 55.71022 -4.29780 21853 ft 325 kts 216°
2026-05-07 20:19 55.69119 -4.32148 21934 ft 343 kts 216°
2026-05-07 20:19 55.67111 -4.34640 21953 ft 362 kts 216°
2026-05-07 20:19 55.64990 -4.37265 21949 ft 378 kts 215°
2026-05-07 20:20 55.62814 -4.39952 21945 ft 383 kts 215°
2026-05-07 20:20 55.60621 -4.42655 21947 ft 385 kts 215°
2026-05-07 20:20 55.58424 -4.45359 21962 ft 385 kts 215°
2026-05-07 20:20 55.56228 -4.48061 21953 ft 384 kts 215°
2026-05-07 20:21 55.54035 -4.50751 21948 ft 384 kts 215°
2026-05-07 20:21 55.51842 -4.53433 21948 ft 383 kts 215°
2026-05-07 20:21 55.49650 -4.56114 21947 ft 383 kts 215°
2026-05-07 20:21 55.47460 -4.58791 21948 ft 383 kts 215°
2026-05-07 20:22 55.45268 -4.61466 21946 ft 383 kts 215°
2026-05-07 20:22 55.43075 -4.64143 21927 ft 383 kts 215°
2026-05-07 20:22 55.40882 -4.66813 21925 ft 383 kts 215°
2026-05-07 20:22 55.38682 -4.69486 21929 ft 384 kts 215°
2026-05-07 20:23 55.36481 -4.72153 21938 ft 384 kts 215°
2026-05-07 20:23 55.34276 -4.74817 21939 ft 385 kts 215°
2026-05-07 20:23 55.32069 -4.77476 21941 ft 385 kts 214°
2026-05-07 20:23 55.29744 -4.79794 21942 ft 385 kts 208°
2026-05-07 20:24 55.27351 -4.81908 21945 ft 385 kts 208°
2026-05-07 20:24 55.24954 -4.84016 21952 ft 385 kts 208°
2026-05-07 20:24 55.22592 -4.86094 21943 ft 385 kts 208°
2026-05-07 20:24 55.20196 -4.88198 21944 ft 385 kts 207°
2026-05-07 20:25 55.17799 -4.90301 21942 ft 385 kts 207°
2026-05-07 20:25 55.15401 -4.92397 21923 ft 385 kts 207°
2026-05-07 20:25 55.13005 -4.94488 21948 ft 385 kts 208°
2026-05-07 20:25 55.10603 -4.96586 21948 ft 386 kts 208°
2026-05-07 20:26 55.08200 -4.98681 21948 ft 385 kts 208°
2026-05-07 20:26 55.05800 -5.00769 21946 ft 385 kts 208°
2026-05-07 20:26 55.03401 -5.02853 21949 ft 386 kts 208°
2026-05-07 20:26 55.00996 -5.04934 21960 ft 386 kts 207°
2026-05-07 20:27 54.98591 -5.07014 21954 ft 386 kts 207°
2026-05-07 20:27 54.96186 -5.09093 21952 ft 385 kts 207°
2026-05-07 20:27 54.93783 -5.11168 21950 ft 385 kts 208°
2026-05-07 20:27 54.91384 -5.13242 21950 ft 385 kts 208°
2026-05-07 20:28 54.88963 -5.15247 21932 ft 386 kts 203°
2026-05-07 20:28 54.86389 -5.16623 21935 ft 388 kts 194°
2026-05-07 20:28 54.83745 -5.17587 21949 ft 389 kts 194°
2026-05-07 20:28 54.81098 -5.18553 21945 ft 389 kts 194°
2026-05-07 20:29 54.78449 -5.19523 21947 ft 389 kts 194°
2026-05-07 20:29 54.75798 -5.20498 21939 ft 389 kts 194°
2026-05-07 20:29 54.73145 -5.21474 21941 ft 390 kts 194°
2026-05-07 20:29 54.70493 -5.22450 21943 ft 390 kts 194°
2026-05-07 20:30 54.67841 -5.23427 21946 ft 390 kts 194°
2026-05-07 20:30 54.65190 -5.24404 21945 ft 389 kts 194°
2026-05-07 20:30 54.62542 -5.25377 21929 ft 390 kts 194°
2026-05-07 20:30 54.59887 -5.26345 21934 ft 390 kts 194°
2026-05-07 20:31 54.57234 -5.27307 21941 ft 390 kts 194°
2026-05-07 20:31 54.54574 -5.28272 21935 ft 390 kts 194°
2026-05-07 20:31 54.51914 -5.29240 21945 ft 391 kts 194°
2026-05-07 20:31 54.49279 -5.30361 21949 ft 389 kts 200°
2026-05-07 20:32 54.46788 -5.32162 21944 ft 387 kts 208°
2026-05-07 20:32 54.44373 -5.34215 21945 ft 388 kts 207°
2026-05-07 20:32 54.41956 -5.36264 21963 ft 388 kts 207°
2026-05-07 20:32 54.39567 -5.38283 21969 ft 388 kts 207°
2026-05-07 20:33 54.37152 -5.40321 21946 ft 384 kts 207°
2026-05-07 20:33 54.34763 -5.42333 21967 ft 381 kts 207°
2026-05-07 20:33 54.32382 -5.44333 21969 ft 380 kts 207°
2026-05-07 20:33 54.30007 -5.46324 21969 ft 380 kts 207°
2026-05-07 20:34 54.27632 -5.48318 21967 ft 380 kts 207°
2026-05-07 20:34 54.25261 -5.50307 21970 ft 380 kts 207°
2026-05-07 20:34 54.22871 -5.52309 21546 ft 382 kts 207°
2026-05-07 20:34 54.20489 -5.54301 21021 ft 380 kts 207°
2026-05-07 20:35 54.18125 -5.56273 20507 ft 377 kts 207°
2026-05-07 20:35 54.15775 -5.58231 20000 ft 374 kts 207°
2026-05-07 20:35 54.13457 -5.60163 19507 ft 368 kts 207°
2026-05-07 20:35 54.11165 -5.62071 19005 ft 365 kts 207°
2026-05-07 20:36 54.08883 -5.63970 18520 ft 363 kts 207°
2026-05-07 20:36 54.06614 -5.65852 18006 ft 361 kts 207°
2026-05-07 20:36 54.04365 -5.67712 17455 ft 359 kts 207°
2026-05-07 20:36 54.02130 -5.69559 16925 ft 356 kts 207°
2026-05-07 20:37 53.99910 -5.71392 16404 ft 354 kts 207°
2026-05-07 20:37 53.97678 -5.73135 16023 ft 352 kts 202°
2026-05-07 20:37 53.95300 -5.74182 15952 ft 355 kts 191°
2026-05-07 20:37 53.92822 -5.74476 15832 ft 359 kts 185°
2026-05-07 20:38 53.90334 -5.74651 15313 ft 355 kts 185°
2026-05-07 20:38 53.87881 -5.74821 14814 ft 351 kts 185°
2026-05-07 20:38 53.86268 -5.74933 14487 ft 349 kts 185°
2026-05-07 20:38 53.83872 -5.75100 13984 ft 337 kts 185°
2026-05-07 20:39 53.81572 -5.75260 13467 ft 325 kts 185°
2026-05-07 20:39 53.79354 -5.75411 12932 ft 314 kts 185°
2026-05-07 20:39 53.77202 -5.75557 12403 ft 304 kts 185°
2026-05-07 20:39 53.75116 -5.75703 11881 ft 295 kts 185°
2026-05-07 20:40 53.73101 -5.75846 11371 ft 285 kts 185°
2026-05-07 20:40 53.71136 -5.75988 10859 ft 280 kts 185°
2026-05-07 20:40 53.69204 -5.76128 10371 ft 275 kts 184°
2026-05-07 20:40 53.67362 -5.76260 9882 ft 262 kts 184°
2026-05-07 20:41 53.65578 -5.76385 9348 ft 251 kts 184°
2026-05-07 20:41 53.63875 -5.76118 8810 ft 244 kts 166°
2026-05-07 20:41 53.62360 -5.74886 8290 ft 244 kts 145°
2026-05-07 20:41 53.61196 -5.72831 7922 ft 243 kts 129°
2026-05-07 20:42 53.60193 -5.70536 7480 ft 242 kts 129°
2026-05-07 20:42 53.59199 -5.68279 7073 ft 236 kts 130°
2026-05-07 20:42 53.58237 -5.66097 6648 ft 229 kts 131°
2026-05-07 20:42 53.57238 -5.64055 6212 ft 223 kts 139°
2026-05-07 20:43 53.56015 -5.62510 5771 ft 218 kts 153°
2026-05-07 20:43 53.54720 -5.61199 5328 ft 217 kts 151°
2026-05-07 20:43 53.53429 -5.59880 5021 ft 217 kts 151°
2026-05-07 20:43 53.52139 -5.58559 5025 ft 218 kts 151°
2026-05-07 20:44 53.50838 -5.57227 5020 ft 219 kts 151°
2026-05-07 20:44 53.49523 -5.55931 5023 ft 219 kts 156°
2026-05-07 20:44 53.48091 -5.55129 5028 ft 216 kts 171°
2026-05-07 20:44 53.46610 -5.54726 5020 ft 215 kts 172°
2026-05-07 20:45 53.45133 -5.54321 5029 ft 214 kts 172°
2026-05-07 20:45 53.43656 -5.53914 5032 ft 214 kts 173°
2026-05-07 20:45 53.42191 -5.53805 4887 ft 210 kts 192°
2026-05-07 20:45 53.40881 -5.54801 4634 ft 210 kts 219°
2026-05-07 20:46 53.40031 -5.56735 4352 ft 209 kts 247°
2026-05-07 20:46 53.39832 -5.59142 4096 ft 211 kts 269°
2026-05-07 20:46 53.39873 -5.61585 3843 ft 208 kts 268°
2026-05-07 20:46 53.39908 -5.64027 3595 ft 211 kts 269°
2026-05-07 20:47 53.39942 -5.66477 3335 ft 209 kts 269°
2026-05-07 20:47 53.39978 -5.68898 3088 ft 207 kts 268°
2026-05-07 20:47 53.40013 -5.71274 3012 ft 197 kts 269°
2026-05-07 20:47 53.40045 -5.73453 3022 ft 182 kts 268°
2026-05-07 20:48 53.40073 -5.75553 3015 ft 180 kts 269°
2026-05-07 20:48 53.40100 -5.77646 3010 ft 179 kts 269°
2026-05-07 20:48 53.40126 -5.79733 3004 ft 179 kts 269°
2026-05-07 20:48 53.40152 -5.81824 3011 ft 180 kts 269°
2026-05-07 20:49 53.40177 -5.83911 3011 ft 178 kts 268°
2026-05-07 20:49 53.40201 -5.85942 3008 ft 177 kts 270°
2026-05-07 20:49 53.40216 -5.88010 3011 ft 175 kts 264°
2026-05-07 20:49 53.40154 -5.90037 3008 ft 177 kts 267°
2026-05-07 20:50 53.40192 -5.92088 3003 ft 176 kts 271°
2026-05-07 20:50 53.40287 -5.94190 3010 ft 179 kts 272°
2026-05-07 20:50 53.40396 -5.96225 3006 ft 177 kts 274°
2026-05-07 20:50 53.40513 -5.98295 3003 ft 179 kts 273°
2026-05-07 20:51 53.40631 -6.00351 3004 ft 175 kts 272°
2026-05-07 20:51 53.40747 -6.02370 2885 ft 173 kts 272°
2026-05-07 20:51 53.40861 -6.04367 2677 ft 172 kts 271°
2026-05-07 20:51 53.40974 -6.06352 2455 ft 168 kts 272°
2026-05-07 20:52 53.41081 -6.08218 2235 ft 156 kts 271°
2026-05-07 20:52 53.41182 -6.09999 2026 ft 152 kts 270°
2026-05-07 20:52 53.41282 -6.11762 1824 ft 152 kts 271°
2026-05-07 20:52 53.41379 -6.13477 1624 ft 140 kts 270°
2026-05-07 20:53 53.41468 -6.15040 1431 ft 131 kts 269°
2026-05-07 20:53 53.41552 -6.16543 1256 ft 129 kts 268°
2026-05-07 20:53 53.41635 -6.18045 1074 ft 129 kts 269°
2026-05-07 20:53 53.41720 -6.19555 903 ft 130 kts 272°
2026-05-07 20:54 53.41804 -6.21071 736 ft 131 kts 272°
2026-05-07 20:54 53.41886 -6.22574 542 ft 129 kts 272°
2026-05-07 20:54 53.41977 -6.24063 363 ft 128 kts 273°
2026-05-07 20:54 53.42054 -6.25555 221 ft 125 kts 271°
2026-05-07 20:55 53.42114 -6.26754 211 ft 69 kts 274°
2026-05-07 20:55 53.42149 -6.27340 211 ft 42 kts 275°
2026-05-07 20:55 53.42193 -6.27788 216 ft 28 kts 292°
2026-05-07 20:55 53.42253 -6.28003 212 ft 9 kts 300°
2026-05-07 20:56 53.42272 -6.28056 215 ft 3 kts 302°
2026-05-07 20:56 53.42286 -6.28088 212 ft 6 kts 308°
2026-05-07 20:56 53.42309 -6.28119 211 ft 4 kts 333°
2026-05-07 20:56 53.42352 -6.28095 211 ft 13 kts 50°
2026-05-07 20:57 53.42357 -6.27938 211 ft 14 kts 95°
2026-05-07 20:57 53.42347 -6.27780 215 ft 14 kts 95°
2026-05-07 20:57 53.42335 -6.27576 214 ft 18 kts 95°
2026-05-07 20:57 53.42324 -6.27371 211 ft 18 kts 95°
2026-05-07 20:58 53.42313 -6.27167 214 ft 17 kts 96°
2026-05-07 20:58 53.42302 -6.26967 211 ft 17 kts 95°
2026-05-07 20:58 53.42292 -6.26772 214 ft 17 kts 96°
2026-05-07 20:58 53.42283 -6.26582 211 ft 16 kts 94°
2026-05-07 20:59 53.42271 -6.26376 213 ft 20 kts 96°
2026-05-07 20:59 53.42258 -6.26140 211 ft 20 kts 95°
2026-05-07 20:59 53.42245 -6.25906 211 ft 20 kts 95°
2026-05-07 20:59 53.42232 -6.25672 218 ft 20 kts 95°
2026-05-07 21:00 53.42220 -6.25450 217 ft 13 kts 95°
2026-05-07 21:00 53.42214 -6.25352 212 ft 5 kts 96°
2026-05-07 21:00 53.42212 -6.25313 215 ft 2 kts 96°
2026-05-07 21:01 53.42211 -6.25309 215 ft 2 kts 96°
2026-05-07 21:01 53.42204 -6.25197 211 ft 14 kts 96°
2026-05-07 21:01 53.42196 -6.25040 212 ft 13 kts 95°
2026-05-07 21:01 53.42189 -6.24896 214 ft 12 kts 94°
2026-05-07 21:02 53.42183 -6.24754 211 ft 12 kts 94°
2026-05-07 21:02 53.42175 -6.24616 218 ft 12 kts 96°
2026-05-07 21:02 53.42167 -6.24484 211 ft 11 kts 94°
2026-05-07 21:02 53.42159 -6.24361 218 ft 10 kts 97°
2026-05-07 21:03 53.42171 -6.24247 214 ft 10 kts 60°
2026-05-07 21:03 53.42217 -6.24193 211 ft 7 kts 348°
2026-05-07 21:03 53.42256 -6.24246 213 ft 7 kts 315°
2026-05-07 21:03 53.42290 -6.24302 214 ft 4 kts 316°
2026-05-07 21:04 53.42305 -6.24326 211 ft 0 kts 316°